Résultat compétition

ESF MEGEVE : Flèche du 18/02/2009   picture_as_pdf

 Epreuve antérieure au 1er Décembre 2018, ne comptant plus pour le classement SkiOpen.

Ouvreur Handicap Temps Réalisé Temps Base
ALLARD KARINE 8.00 56.29 52.12
Médaille Or Vermeil Argent Bronze Fléchette
Pourcentage 15.00% 28.00% 40.00% 45.00% 50.00%
Temps 1:00.98 1:07.75 1:15.57 1:23.39 1:25.99
Clt.  expand_more Identité Code S. An Cat Temps Pts Médaille PDF Cor.
1 MACQUERON YANN ESF0300714892 M 1991 JUN 55.16 5.83 Or picture_as_pdf edit
2 HENNES JEAN MARIE FFS1090359 M 1954 MA3 56.84 9.06 Or picture_as_pdf edit
3 TAVEL JULIEN ESF0730820184 M 1993 CAD 58.08 11.44 Or picture_as_pdf edit
4 AGGOUNE LEONARD ESF0941601704 M 1997 BEN 58.48 12.20 Or picture_as_pdf edit
5 GAYTE THIERRY ESF0941601857 M 1963 MA2 58.70 12.62 Or picture_as_pdf edit
6 HENNES RICHARD ESF0941601860 M 1990 JUN 59.80 14.74 Or picture_as_pdf edit
7 FORESTIER LUC ESF0859900007 M 1953 MA3 59.97 15.06 Or picture_as_pdf edit
8 SARRABERE GAUTHIER ESF0641607187 M 1993 CAD 1:01.06 17.15 Vermeil picture_as_pdf edit
9 LEYNE EDOUARD ESF0862311059 M 1991 JUN 1:01.48 17.96 Vermeil picture_as_pdf edit
10 GUIZARD ANTOINE ESF0941601853 M 1992 CAD 1:02.36 19.65 Vermeil picture_as_pdf edit
11 HENNES GUILLAUME ESF0941601859 M 1958 MA3 1:03.13 21.12 Vermeil picture_as_pdf edit
12 LEYNE THIBAULT ESF0941601852 M 1993 CAD 1:04.84 24.41 Vermeil picture_as_pdf edit
13 BISTUE MARIE ESF0441600578 F 1994 MIN 1:05.39 25.46 Vermeil picture_as_pdf edit
14 SARRABERE TIPHAINE ESF0641605896 F 1995 MIN 1:05.47 25.61 Vermeil picture_as_pdf edit
15 GRANIER ALBANE ESF0941601851 F 1992 CAD 1:05.91 26.46 Vermeil picture_as_pdf edit
16 ARQUE CLEMENT ESF0941601426 M 1995 MIN 1:05.96 26.55 Vermeil picture_as_pdf edit
17 MERLE MARGUERITE ESF0641607382 F 1998 POU 1:08.45 31.33 Argent picture_as_pdf edit
18 LEYNE GAUTHIER ESF0862310994 M 1996 BEN 1:09.12 32.62 Argent picture_as_pdf edit
19 DE POUZILHAC EDOUARD ESF0941601854 M 1970 MA1 1:09.22 32.81 Argent picture_as_pdf edit
20 PILI PIERRE ESF0741607095 M 2000 POU 1:10.27 34.82 Argent picture_as_pdf edit
21 JEAN PIERRE-ALEXANDRE ESF0941600307 M 2001 POU 1:10.46 35.19 Argent picture_as_pdf edit
22 BOUSSON VIARD LEO ESF0941601038 M 1999 POU 1:10.84 35.92 Argent picture_as_pdf edit
23 BOITREAUD JACQUES ESF0641601353 M 1997 BEN 1:10.90 36.03 Argent picture_as_pdf edit
24 FORESTIER ANTOINE ESF0641601622 M 1999 POU 1:11.25 36.70 Argent picture_as_pdf edit
25 JALABERT ROMANE ESF0741607594 F 1998 POU 1:11.69 37.55 Argent picture_as_pdf edit
26 DIETSCH EDOUARD ESF0741605052 M 1999 POU 1:12.74 39.56 Argent picture_as_pdf edit
27 SALLE ANTONIN ESF0941600332 M 1997 BEN 1:13.11 40.27 Argent picture_as_pdf edit
28 LIARAS VICTOIRE ESF0741605106 F 1997 BEN 1:13.70 41.40 Argent picture_as_pdf edit
29 MERLE CAPUCINE ESF0941601302 F 2002 POU 1:14.03 42.04 Argent picture_as_pdf edit
30 LECARPENTIER CLEMENT ESF0841600911 M 1996 BEN 1:14.16 42.29 Argent picture_as_pdf edit
31 BERQUET-CLIGNET SEBASTIEN ESF0741606961 M 1998 POU 1:14.66 43.25 Argent picture_as_pdf edit
32 CREANCIER HUGO ESF0641601217 M 1996 BEN 1:15.03 43.96 Argent picture_as_pdf edit
33 DIETSCH CAROLINE ESF0741605054 F 1997 BEN 1:15.19 44.26 Argent picture_as_pdf edit
34 BISTUE PAULINE ESF0941601095 F 1997 BEN 1:15.53 44.92 Argent picture_as_pdf edit
35 HENKELMAN ANOUK ESF0941601549 F 1997 BEN 1:15.54 44.93 Argent picture_as_pdf edit
36 COLELLA CLEA ESF0741603716 F 1995 MIN 1:15.69 45.22 Bronze picture_as_pdf edit
37 GAUTIER AUGUSTIN ESF0741607626 M 2000 POU 1:15.96 45.74 Bronze picture_as_pdf edit
38 DUSSAUGE KYRIL ESF0941601649 M 1998 POU 1:16.03 45.87 Bronze picture_as_pdf edit
39 KOOIJMAN YON ESF0941601495 M 1997 BEN 1:16.23 46.26 Bronze picture_as_pdf edit
40 GENIEYS ANTOINE ESF0941600405 M 1996 BEN 1:16.98 47.70 Bronze picture_as_pdf edit
41 DRYJSKI MATHIEU ESF0741602476 M 1997 BEN 1:17.45 48.60 Bronze picture_as_pdf edit
42 KARVELIS EDOUARD ESF0841601497 M 1999 POU 1:17.49 48.68 Bronze picture_as_pdf edit
43 SEBES JULES ESF0741606113 M 1996 BEN 1:17.58 48.85 Bronze picture_as_pdf edit
44 LECHAUGUETTE EVE ESF0741601504 F 1998 POU 1:19.21 51.98 Bronze picture_as_pdf edit
45 MINGOIA MARIE-CHARLOTTE ESF0641604525 F 1996 BEN 1:19.31 52.17 Bronze picture_as_pdf edit
46 DRUCKER VINCENT ESF0941600994 M 1998 POU 1:19.50 52.53 Bronze picture_as_pdf edit
47 ARQUE CHLOE ESF0941601428 F 1997 BEN 1:19.57 52.67 Bronze picture_as_pdf edit
48 BACHELIER ILONA ESF0941601153 F 1997 BEN 1:20.99 55.39 Bronze picture_as_pdf edit
49 METRAL LEONORE ESF0941601422 F 1996 BEN 1:21.25 55.89 Bronze picture_as_pdf edit
50 COLELLA CESAR ESF0741603714 M 1997 BEN 1:21.28 55.95 Bronze picture_as_pdf edit
51 HAGGAI SACHA ESF0941600561 M 1997 BEN 1:21.35 56.08 Bronze picture_as_pdf edit
52 DUSSAUGE DAPHNE ESF0941601778 F 1963 MA2 1:21.73 56.81 Bronze picture_as_pdf edit
53 ARBEZ-GINDRE NINON ESF0941601251 F 1998 POU 1:21.81 56.96 Bronze picture_as_pdf edit
54 BOUSSON VIARD COME ESF0941601040 M 2001 POU 1:21.91 57.16 Bronze picture_as_pdf edit
55 FLAMEN D'ASSIGNY CAPUCINE ESF0941600902 F 1997 BEN 1:21.97 57.27 Bronze picture_as_pdf edit
56 TAVIDIAN PIA ESF0941600806 F 1999 POU 1:23.15 59.54 Bronze picture_as_pdf edit
57 GODILLON REMI ESF0941600651 M 1996 BEN 1:23.52 60.25 Fléchette picture_as_pdf edit
58 HENRI DE FRANC STANISLAS ESF0941620016 M 1:23.67 60.53 Fléchette picture_as_pdf edit
59 BOITREAUD ADRIEN ESF0841600643 M 2000 POU 1:23.93 61.03 Fléchette picture_as_pdf edit
60 BRUNE NICOLAI ESF0941601754 M 1997 BEN 1:24.46 62.05 Fléchette picture_as_pdf edit
61 SERRE-TOSCAS ATHINA ESF0941601010 F 1995 MIN 1:24.68 62.47 Fléchette picture_as_pdf edit
62 ARBEZ- GINDRE CAPUCINE ESF0941601250 F 2000 POU 1:24.71 62.53 Fléchette picture_as_pdf edit
63 LECLERC ALEXANDRE ESF0741602642 M 1998 POU 1:25.37 63.80 Fléchette picture_as_pdf edit
64 TOSCAS KASSIOPEE ESF0741604317 F 1995 MIN 1:25.93 64.87 Fléchette picture_as_pdf edit
65 COHEN-AKNINE RUBEN ESF0941601381 M 1996 BEN 1:26.64 66.23 picture_as_pdf edit
66 BLANCHET CAPUCINE ESF0941600972 F 1999 POU 1:28.36 69.53 picture_as_pdf edit
67 DOBIS ANDRE ESF0941601466 M 1998 POU 1:28.67 70.13 picture_as_pdf edit
68 METRAL MARJOLAINE ESF0941601424 F 2000 POU 1:29.80 72.29 picture_as_pdf edit
69 NIVEL FABIEN ESF0941601813 M 1999 POU 1:30.01 72.70 picture_as_pdf edit
70 LUCCHINI MAXIME ESF0941601681 M 2001 POU 1:32.13 76.77 picture_as_pdf edit
71 NIVEL PAULINE ESF0941601812 F 1997 BEN 1:32.66 77.78 picture_as_pdf edit
72 GUGGEMOS ALIX ESF0941601525 F 1998 POU 1:34.33 80.99 picture_as_pdf edit